Home > Weather > Aarhus > Past weeks

Flag for Denmark Past Weather in Aarhus, Denmark — Yesterday and Last 2 Weeks

Now
57 °F

Cool.


Feels Like: 57 °F
Forecast: 54 / 71 °F
Wind: 5 mph from West

Location: Tirstrup

Current Time: Jul 28, 2016 at 6:57:14 AM

Latest Report: Jul 28, 2016 at 6:20 AM


Visibility: N/A

Pressure: 29.92 "Hg

Humidity: 88%

Dew Point: 54 °F

Location of AarhusLocation

Past Weather in Aarhus — Graph

°F

Aarhus Temperature Yesterday

Maximum temperature yesterday: 73 °F (at 1:50 PM)
Minimum temperature yesterday: 52 °F (at 4:50 AM)
Average temperature yesterday: 63 °F

High & Low Weather Summary for the Past Weeks

 TemperatureHumidityPressure
High81 °F (Jul 22, 3:20 PM)94% (Jul 15, 2:50 AM)30.15 "Hg (Jul 15, 2:50 AM)
Low52 °F (Jul 13, 5:20 AM)28% (Jul 24, 2:20 PM)29.83 "Hg (Jul 13, 5:20 AM)
Average65 °F68%30.03 "Hg
* Reported Jul 13 5:20 AM — Jul 28 5:20 AM, Aarhus, Weather by CustomWeather, © 2016

Note: Actual official high and low records may vary slightly from our data, if they occured in-between our weather recording intervals... More about our weather records

Advertising

Aarhus Weather History for the Previous 24 Hours

Scroll right to see more
 ConditionsComfort  
Time TempWeatherWind HumidityBarometerVisibility
5:20 AM
Thu, Jul 28
57 °FPassing clouds.6 mph88%29.89 "Hg4 mi
4:50 AM59 °FPassing clouds.7 mph88%29.89 "Hg5 mi
4:20 AM59 °FPassing clouds.6 mph88%29.89 "HgN/A
3:50 AM59 °FPassing clouds.7 mph88%29.89 "HgN/A
3:20 AM61 °FPassing clouds.6 mph88%29.89 "HgN/A
2:50 AM63 °FPartly cloudy.7 mph83%29.89 "HgN/A
2:20 AM63 °FSprinkles. Passing clouds.5 mph88%29.89 "Hg3 mi
1:50 AM63 °FPassing clouds.3 mph88%29.89 "HgN/A
1:20 AM63 °FOvercast.2 mph88%29.89 "HgN/A
12:50 AM63 °FPassing clouds.2 mph88%29.89 "Hg6 mi
12:20 AM63 °FPassing clouds.3 mph88%29.89 "Hg6 mi
11:50 PM
Wed, Jul 27
63 °FPassing clouds.2 mph88%29.89 "Hg6 mi
11:20 PM63 °FPassing clouds.1 mph88%29.89 "HgN/A
10:50 PM63 °FPassing clouds.1 mph88%29.89 "HgN/A
10:20 PM63 °FLight rain. Partly sunny.1 mph88%29.92 "HgN/A
9:50 PM63 °FLight rain. Partly sunny.2 mph88%29.92 "HgN/A
9:20 PM64 °FRain. Partly sunny.2 mph83%29.92 "Hg3 mi
8:50 PM64 °FSprinkles. Partly sunny.2 mph83%29.92 "HgN/A
8:20 PM64 °FSprinkles. Partly sunny.5 mph78%29.92 "HgN/A
7:50 PM66 °FLight rain. Partly sunny.7 mph73%29.92 "HgN/A
7:20 PM68 °FOvercast.7 mph60%29.92 "HgN/A
6:50 PM68 °FPartly sunny.9 mph60%29.92 "HgN/A
6:20 PM68 °FPartly sunny.9 mph60%29.92 "HgN/A
5:50 PM70 °FPartly sunny.9 mph57%29.92 "HgN/A
5:20 PM70 °FScattered clouds.10 mph57%29.92 "HgN/A
4:50 PM72 °FScattered clouds.12 mph53%29.92 "HgN/A
4:20 PM72 °FScattered clouds.10 mph53%29.95 "HgN/A
3:50 PM72 °FPassing clouds.12 mph53%29.95 "HgN/A
3:20 PM72 °FScattered clouds.9 mph57%29.95 "HgN/A
2:50 PM73 °FScattered clouds.13 mph50%29.95 "HgN/A
2:20 PM73 °FScattered clouds.10 mph50%29.98 "HgN/A
1:50 PM73 °FPartly sunny.9 mph50%29.98 "HgN/A
1:20 PM72 °FPartly sunny.9 mph57%29.98 "HgN/A
12:50 PM70 °FPartly sunny.8 mph64%30.01 "HgN/A
12:20 PM70 °FPartly sunny.7 mph60%30.01 "HgN/A
11:50 AM70 °FPartly sunny.6 mph60%30.01 "HgN/A
11:20 AM68 °FPartly sunny.6 mph60%30.04 "HgN/A
10:50 AM68 °FPartly sunny.7 mph56%30.04 "HgN/A
10:20 AM66 °FPartly sunny.7 mph60%30.04 "HgN/A
9:50 AM66 °FPassing clouds.7 mph56%30.04 "HgN/A
9:20 AM66 °FPassing clouds.7 mph56%30.04 "HgN/A
8:50 AM64 °FPassing clouds.5 mph64%30.04 "HgN/A
8:20 AM64 °FMild.3 mph73%30.04 "HgN/A
7:50 AM61 °FCool.1 mph83%30.07 "HgN/A
7:20 AM57 °FCool.1 mph82%30.07 "HgN/A
6:50 AM54 °FCool.No wind88%30.07 "HgN/A
6:20 AM54 °FCool.No wind82%30.07 "HgN/A
Weather by CustomWeather, © 2016

See weather overviewHow to use our weather pages